Date,TemperatureHighF,TemperatureAvgF,TemperatureLowF,DewpointHighF,DewpointAvgF,DewpointLowF,HumidityHigh,HumidityAvg,HumidityLow,PressureMaxIn,PressureMinIn,WindSpeedMaxMPH,WindSpeedAvgMPH,GustSpeedMaxMPH,PrecipitationSumIn
2013-6-1,76,67,58,66,62,55,96,84,59,29.94,29.65,14,1,14,0.70
2013-6-2,64,59,52,57,54,49,95,84,69,30.04,29.92,8,2,11,0.00
2013-6-3,75,62,48,58,53,47,97,75,47,30.05,29.89,10,1,10,0.00
2013-6-4,75,66,59,64,58,55,91,77,61,29.99,29.88,12,1,12,0.00
2013-6-5,76,66,60,67,62,58,94,85,67,29.97,29.80,10,1,10,0.00
2013-6-6,69,63,55,66,59,53,97,89,69,29.90,29.85,6,1,12,0.04
2013-6-7,73,59,49,60,53,48,97,83,53,29.95,29.90,15,1,15,0.00
2013-6-15,76,70,67,73,67,64,97,89,69,30.02,29.88,14,1,14,0.85
2013-6-16,87,75,66,74,69,64,96,82,58,29.95,29.84,16,0,16,0.61
2013-6-17,73,69,64,70,67,62,97,93,84,29.93,29.80,12,1,12,0.06
2013-6-18,85,70,56,68,62,55,97,78,50,29.98,29.90,10,0,10,0.00
2013-6-19,86,73,59,68,63,57,97,73,41,30.01,29.92,9,0,9,0.00
2013-6-20,88,77,64,70,66,62,95,71,47,30.03,29.94,15,1,15,0.00
2013-6-21,90,81,71,74,70,67,88,70,52,30.02,29.93,13,1,13,0.00
2013-6-22,90,80,72,73,70,66,93,72,49,30.01,29.89,13,1,13,0.00
2013-6-23,90,80,70,73,69,66,91,70,48,29.95,29.85,12,1,12,0.00
2013-6-24,90,81,71,72,69,66,88,68,47,30.00,29.87,11,1,11,0.00
2013-6-25,89,80,70,72,68,64,89,67,46,29.91,29.77,15,1,15,0.00
2013-6-26,92,83,74,75,71,66,90,69,52,29.83,29.76,10,1,10,0.00
2013-6-27,96,84,71,78,74,70,96,76,46,29.90,29.78,10,0,10,0.00
2013-6-28,88,78,69,76,66,56,96,68,43,29.87,29.75,29,2,29,0.41
2013-6-29,84,74,62,61,57,49,89,58,32,29.80,29.72,20,3,23,0.00
2013-6-30,77,69,63,62,59,55,89,72,50,29.92,29.76,15,3,15,0.00